        Date        , GPU Core Clock [MHz] , GPU Memory Clock [MHz] , GPU Temperature [�C] , Fan Speed [%] , GPU Load [%] , Fan Speed [RPM] , GPU Temp. #1 [�C] , GPU Temp. #2 [�C] , GPU Temp. #3 [�C] , VDDC [V] ,
2010-12-09 14:33:30 ,              612.0   ,               1375.0   ,               67.0   ,          31   ,        100   ,          1733   ,            67.0   ,            65.0   ,            64.5   ,  1.175   ,
2010-12-09 14:33:31 ,              769.5   ,               1375.0   ,               67.0   ,          31   ,        100   ,          1746   ,            67.0   ,            66.5   ,            65.5   ,  1.175   ,
2010-12-09 14:33:32 ,              612.0   ,               1375.0   ,               67.0   ,          31   ,        100   ,          1751   ,            67.5   ,            67.5   ,            65.0   ,  1.175   ,
2010-12-09 14:33:33 ,              598.5   ,               1375.0   ,               67.0   ,          31   ,        100   ,          1751   ,            67.5   ,            67.0   ,            65.0   ,  1.175   ,
2010-12-09 14:33:34 ,              598.5   ,               1375.0   ,               67.0   ,          31   ,        100   ,          1751   ,            68.0   ,            67.5   ,            66.5   ,  1.175   ,
2010-12-09 14:33:35 ,              880.0   ,               1375.0   ,               68.0   ,          31   ,        100   ,          1751   ,            68.0   ,            67.5   ,            66.0   ,  1.175   ,
2010-12-09 14:33:36 ,              612.0   ,               1375.0   ,               68.0   ,          31   ,        100   ,          1752   ,            68.5   ,            68.0   ,            66.0   ,  1.175   ,
2010-12-09 14:33:37 ,              598.5   ,               1375.0   ,               69.0   ,          31   ,        100   ,          1753   ,            69.0   ,            68.5   ,            66.5   ,  1.175   ,
2010-12-09 14:33:38 ,              880.0   ,               1375.0   ,               68.0   ,          32   ,        100   ,          1794   ,            69.0   ,            68.0   ,            67.0   ,  1.175   ,
2010-12-09 14:33:39 ,              612.0   ,               1375.0   ,               69.0   ,          32   ,        100   ,          1811   ,            69.0   ,            68.5   ,            67.0   ,  1.175   ,
2010-12-09 14:33:40 ,              598.5   ,               1375.0   ,               69.0   ,          32   ,        100   ,          1811   ,            69.0   ,            68.5   ,            68.0   ,  1.175   ,
2010-12-09 14:33:41 ,              738.0   ,               1375.0   ,               69.0   ,          32   ,         99   ,          1811   ,            69.5   ,            69.0   ,            67.5   ,  1.175   ,
2010-12-09 14:33:42 ,              598.5   ,               1375.0   ,               70.0   ,          32   ,        100   ,          1812   ,            70.0   ,            69.0   ,            67.5   ,  1.175   ,
2010-12-09 14:33:43 ,              598.5   ,               1375.0   ,               69.0   ,          32   ,        100   ,          1812   ,            69.5   ,            70.0   ,            68.0   ,  1.175   ,
2010-12-09 14:33:44 ,              612.0   ,               1375.0   ,               70.0   ,          32   ,        100   ,          1813   ,            70.0   ,            70.0   ,            68.5   ,  1.175   ,
2010-12-09 14:33:45 ,              880.0   ,               1375.0   ,               70.0   ,          33   ,        100   ,          1851   ,            70.5   ,            69.5   ,            67.5   ,  1.175   ,
2010-12-09 14:33:46 ,              612.0   ,               1375.0   ,               71.0   ,          33   ,        100   ,          1861   ,            71.0   ,            70.0   ,            68.5   ,  1.175   ,
2010-12-09 14:33:47 ,              634.5   ,               1375.0   ,               70.0   ,          33   ,        100   ,          1864   ,            70.5   ,            70.5   ,            68.5   ,  1.175   ,
2010-12-09 14:33:48 ,              607.5   ,               1375.0   ,               70.0   ,          33   ,        100   ,          1865   ,            71.0   ,            70.5   ,            68.5   ,  1.175   ,
2010-12-09 14:33:49 ,              598.5   ,               1375.0   ,               71.0   ,          33   ,        100   ,          1864   ,            71.0   ,            71.0   ,            69.5   ,  1.175   ,
2010-12-09 14:33:50 ,              598.5   ,               1375.0   ,               71.0   ,          33   ,        100   ,          1865   ,            71.5   ,            71.5   ,            69.5   ,  1.175   ,
2010-12-09 14:33:51 ,              670.5   ,               1375.0   ,               71.0   ,          33   ,        100   ,          1865   ,            71.5   ,            71.5   ,            69.5   ,  1.175   ,
2010-12-09 14:33:52 ,              612.0   ,               1375.0   ,               72.0   ,          33   ,        100   ,          1866   ,            72.5   ,            71.0   ,            69.0   ,  1.175   ,
2010-12-09 14:33:53 ,              612.0   ,               1375.0   ,               72.0   ,          33   ,         99   ,          1866   ,            72.5   ,            73.0   ,            70.5   ,  1.175   ,
2010-12-09 14:33:54 ,              598.5   ,               1375.0   ,               69.0   ,          33   ,        100   ,          1867   ,            69.5   ,            70.0   ,            69.0   ,  1.175   ,
2010-12-09 14:33:55 ,              634.5   ,               1375.0   ,               69.0   ,          33   ,        100   ,          1868   ,            69.5   ,            70.5   ,            68.5   ,  1.175   ,
2010-12-09 14:33:56 ,              634.5   ,               1375.0   ,               69.0   ,          33   ,        100   ,          1869   ,            70.0   ,            70.5   ,            68.5   ,  1.175   ,
2010-12-09 14:33:57 ,              634.5   ,               1375.0   ,               69.0   ,          33   ,        100   ,          1868   ,            70.0   ,            70.5   ,            70.0   ,  1.175   ,
2010-12-09 14:33:58 ,              634.5   ,               1375.0   ,               69.0   ,          33   ,         99   ,          1869   ,            69.5   ,            70.5   ,            69.0   ,  1.175   ,
2010-12-09 14:33:59 ,              634.5   ,               1375.0   ,               70.0   ,          33   ,        100   ,          1867   ,            70.0   ,            71.0   ,            69.5   ,  1.175   ,
2010-12-09 14:34:00 ,              598.5   ,               1375.0   ,               70.0   ,          33   ,        100   ,          1868   ,            70.0   ,            71.5   ,            69.5   ,  1.175   ,
2010-12-09 14:34:01 ,              706.5   ,               1375.0   ,               70.0   ,          33   ,        100   ,          1868   ,            70.0   ,            71.5   ,            70.0   ,  1.175   ,
2010-12-09 14:34:02 ,              634.5   ,               1375.0   ,               70.0   ,          33   ,        100   ,          1870   ,            70.5   ,            71.5   ,            70.0   ,  1.175   ,
2010-12-09 14:34:03 ,              634.5   ,               1375.0   ,               71.0   ,          33   ,         99   ,          1867   ,            71.0   ,            72.0   ,            70.0   ,  1.175   ,
2010-12-09 14:34:04 ,              670.5   ,               1375.0   ,               71.0   ,          33   ,        100   ,          1869   ,            71.5   ,            72.0   ,            70.0   ,  1.175   ,
2010-12-09 14:34:05 ,              612.0   ,               1375.0   ,               71.0   ,          33   ,        100   ,          1869   ,            71.5   ,            72.0   ,            70.0   ,  1.175   ,
2010-12-09 14:34:06 ,              612.0   ,               1375.0   ,               71.0   ,          33   ,        100   ,          1868   ,            71.5   ,            72.0   ,            70.5   ,  1.175   ,
2010-12-09 14:34:07 ,              823.5   ,               1375.0   ,               71.0   ,          33   ,        100   ,          1868   ,            71.5   ,            72.0   ,            71.0   ,  1.175   ,
2010-12-09 14:34:08 ,              738.0   ,               1375.0   ,               71.0   ,          33   ,         99   ,          1868   ,            71.5   ,            72.5   ,            71.5   ,  1.175   ,
2010-12-09 14:34:09 ,              720.0   ,               1375.0   ,               72.0   ,          33   ,        100   ,          1868   ,            71.5   ,            72.5   ,            71.5   ,  1.175   ,
2010-12-09 14:34:10 ,              598.5   ,               1375.0   ,               72.0   ,          33   ,        100   ,          1869   ,            72.5   ,            72.5   ,            70.5   ,  1.175   ,
2010-12-09 14:34:11 ,              634.5   ,               1375.0   ,               72.0   ,          33   ,        100   ,          1869   ,            72.5   ,            73.0   ,            71.5   ,  1.175   ,
2010-12-09 14:34:12 ,              598.5   ,               1375.0   ,               72.0   ,          33   ,        100   ,          1869   ,            72.5   ,            73.0   ,            71.5   ,  1.175   ,
2010-12-09 14:34:13 ,              598.5   ,               1375.0   ,               72.0   ,          33   ,        100   ,          1869   ,            72.5   ,            73.0   ,            71.5   ,  1.175   ,
2010-12-09 14:34:15 ,              612.0   ,               1375.0   ,               72.0   ,          33   ,        100   ,          1868   ,            72.5   ,            74.0   ,            72.0   ,  1.175   ,
2010-12-09 14:34:16 ,              634.5   ,               1375.0   ,               72.0   ,          33   ,        100   ,          1866   ,            72.5   ,            73.5   ,            72.0   ,  1.175   ,
2010-12-09 14:34:17 ,              634.5   ,               1375.0   ,               73.0   ,          33   ,        100   ,          1867   ,            73.0   ,            73.5   ,            72.5   ,  1.175   ,
2010-12-09 14:34:18 ,              612.0   ,               1375.0   ,               73.0   ,          33   ,        100   ,          1869   ,            73.0   ,            73.5   ,            72.5   ,  1.175   ,
2010-12-09 14:34:19 ,              612.0   ,               1375.0   ,               73.0   ,          33   ,        100   ,          1867   ,            73.5   ,            74.0   ,            72.5   ,  1.175   ,
2010-12-09 14:34:20 ,              612.0   ,               1375.0   ,               73.0   ,          33   ,        100   ,          1865   ,            73.5   ,            73.5   ,            72.5   ,  1.175   ,
2010-12-09 14:34:21 ,              706.5   ,               1375.0   ,               73.0   ,          33   ,        100   ,          1867   ,            73.5   ,            74.0   ,            72.5   ,  1.175   ,
2010-12-09 14:34:22 ,              634.5   ,               1375.0   ,               74.0   ,          33   ,        100   ,          1867   ,            73.5   ,            74.5   ,            73.0   ,  1.175   ,
2010-12-09 14:34:23 ,              612.0   ,               1375.0   ,               73.0   ,          33   ,        100   ,          1909   ,            73.5   ,            74.5   ,            73.0   ,  1.175   ,
2010-12-09 14:34:24 ,              634.5   ,               1375.0   ,               74.0   ,          33   ,        100   ,          1922   ,            74.0   ,            74.5   ,            73.0   ,  1.175   ,
2010-12-09 14:34:25 ,              880.0   ,               1375.0   ,               74.0   ,          33   ,        100   ,          1922   ,            74.5   ,            75.0   ,            72.5   ,  1.175   ,
2010-12-09 14:34:26 ,              598.5   ,               1375.0   ,               74.0   ,          33   ,         99   ,          1922   ,            74.5   ,            75.0   ,            73.5   ,  1.175   ,
2010-12-09 14:34:27 ,              625.5   ,               1375.0   ,               74.0   ,          33   ,         99   ,          1924   ,            74.5   ,            75.5   ,            74.0   ,  1.175   ,
2010-12-09 14:34:28 ,              880.0   ,               1375.0   ,               74.0   ,          33   ,        100   ,          1923   ,            74.5   ,            75.0   ,            74.0   ,  1.175   ,
2010-12-09 14:34:29 ,              634.5   ,               1375.0   ,               75.0   ,          33   ,        100   ,          1923   ,            74.5   ,            75.5   ,            74.0   ,  1.175   ,
2010-12-09 14:34:30 ,              612.0   ,               1375.0   ,               74.0   ,          33   ,        100   ,          1926   ,            74.5   ,            75.5   ,            74.0   ,  1.175   ,
2010-12-09 14:34:31 ,              598.5   ,               1375.0   ,               75.0   ,          33   ,        100   ,          1924   ,            74.5   ,            75.5   ,            74.5   ,  1.175   ,
2010-12-09 14:34:32 ,              607.5   ,               1375.0   ,               75.0   ,          33   ,        100   ,          1923   ,            74.5   ,            75.5   ,            74.0   ,  1.175   ,
2010-12-09 14:34:33 ,              612.0   ,               1375.0   ,               75.0   ,          33   ,        100   ,          1924   ,            75.0   ,            75.5   ,            74.5   ,  1.175   ,
2010-12-09 14:34:34 ,              598.5   ,               1375.0   ,               75.0   ,          33   ,         99   ,          1923   ,            75.0   ,            75.5   ,            75.0   ,  1.175   ,
2010-12-09 14:34:35 ,              598.5   ,               1375.0   ,               75.0   ,          33   ,         99   ,          1925   ,            75.0   ,            76.5   ,            75.0   ,  1.175   ,
2010-12-09 14:34:36 ,              880.0   ,               1375.0   ,               75.0   ,          34   ,         99   ,          1960   ,            75.5   ,            76.5   ,            75.5   ,  1.175   ,
2010-12-09 14:34:37 ,              598.5   ,               1375.0   ,               75.0   ,          34   ,         99   ,          1971   ,            75.5   ,            76.5   ,            75.5   ,  1.175   ,
2010-12-09 14:34:38 ,              634.5   ,               1375.0   ,               75.0   ,          34   ,         99   ,          1972   ,            75.5   ,            76.5   ,            75.0   ,  1.175   ,
2010-12-09 14:34:39 ,              612.0   ,               1375.0   ,               75.0   ,          34   ,         99   ,          1972   ,            76.0   ,            76.5   ,            75.5   ,  1.175   ,
2010-12-09 14:34:40 ,              634.5   ,               1375.0   ,               75.0   ,          34   ,        100   ,          1973   ,            75.5   ,            76.5   ,            75.5   ,  1.175   ,
2010-12-09 14:34:41 ,              634.5   ,               1375.0   ,               76.0   ,          34   ,        100   ,          1975   ,            76.0   ,            77.0   ,            75.5   ,  1.175   ,
2010-12-09 14:34:42 ,              880.0   ,               1375.0   ,               76.0   ,          34   ,        100   ,          1973   ,            76.0   ,            77.0   ,            75.5   ,  1.175   ,
2010-12-09 14:34:43 ,              598.5   ,               1375.0   ,               76.0   ,          34   ,        100   ,          1974   ,            76.0   ,            77.0   ,            75.0   ,  1.175   ,
2010-12-09 14:34:44 ,              634.5   ,               1375.0   ,               76.0   ,          34   ,         99   ,          1973   ,            76.0   ,            76.5   ,            76.0   ,  1.175   ,
2010-12-09 14:34:45 ,              612.0   ,               1375.0   ,               76.0   ,          35   ,         99   ,          2024   ,            76.5   ,            77.0   ,            76.0   ,  1.175   ,
2010-12-09 14:34:46 ,              598.5   ,               1375.0   ,               76.0   ,          35   ,         99   ,          2035   ,            77.0   ,            77.5   ,            76.0   ,  1.175   ,
2010-12-09 14:34:47 ,              612.0   ,               1375.0   ,               76.0   ,          35   ,        100   ,          2036   ,            76.0   ,            77.0   ,            75.5   ,  1.175   ,
2010-12-09 14:34:48 ,              634.5   ,               1375.0   ,               76.0   ,          35   ,        100   ,          2037   ,            76.5   ,            77.5   ,            76.5   ,  1.175   ,
2010-12-09 14:34:49 ,              634.5   ,               1375.0   ,               76.0   ,          35   ,        100   ,          2036   ,            76.5   ,            77.5   ,            76.5   ,  1.175   ,
2010-12-09 14:34:50 ,              603.0   ,               1375.0   ,               77.0   ,          35   ,        100   ,          2036   ,            76.5   ,            78.0   ,            76.5   ,  1.175   ,
2010-12-09 14:34:51 ,              598.5   ,               1375.0   ,               77.0   ,          35   ,        100   ,          2036   ,            77.0   ,            77.5   ,            76.0   ,  1.175   ,
2010-12-09 14:34:52 ,              598.5   ,               1375.0   ,               76.0   ,          35   ,        100   ,          2035   ,            77.0   ,            77.5   ,            77.0   ,  1.175   ,
2010-12-09 14:34:53 ,              634.5   ,               1375.0   ,               77.0   ,          35   ,        100   ,          2033   ,            77.5   ,            78.0   ,            77.0   ,  1.175   ,
2010-12-09 14:34:54 ,              598.5   ,               1375.0   ,               76.0   ,          35   ,        100   ,          2035   ,            77.0   ,            78.0   ,            76.5   ,  1.175   ,
2010-12-09 14:34:55 ,              769.5   ,               1375.0   ,               76.0   ,          35   ,        100   ,          2034   ,            77.0   ,            78.5   ,            77.0   ,  1.175   ,
2010-12-09 14:34:56 ,              612.0   ,               1375.0   ,               77.0   ,          35   ,        100   ,          2035   ,            77.0   ,            78.5   ,            77.0   ,  1.175   ,
2010-12-09 14:34:57 ,              612.0   ,               1375.0   ,               77.0   ,          35   ,        100   ,          2034   ,            77.5   ,            78.5   ,            77.5   ,  1.175   ,
2010-12-09 14:34:58 ,              612.0   ,               1375.0   ,               77.0   ,          35   ,        100   ,          2035   ,            77.5   ,            78.5   ,            77.5   ,  1.175   ,
2010-12-09 14:34:59 ,              612.0   ,               1375.0   ,               77.0   ,          35   ,        100   ,          2036   ,            78.0   ,            78.0   ,            77.5   ,  1.175   ,
2010-12-09 14:35:00 ,              634.5   ,               1375.0   ,               78.0   ,          35   ,        100   ,          2036   ,            78.0   ,            78.5   ,            77.5   ,  1.175   ,
2010-12-09 14:35:01 ,              598.5   ,               1375.0   ,               77.0   ,          35   ,        100   ,          2037   ,            77.5   ,            79.0   ,            77.5   ,  1.175   ,
2010-12-09 14:35:02 ,              880.0   ,               1375.0   ,               77.0   ,          35   ,        100   ,          2038   ,            77.5   ,            78.5   ,            77.5   ,  1.175   ,
2010-12-09 14:35:03 ,              634.5   ,               1375.0   ,               77.0   ,          35   ,         99   ,          2040   ,            77.5   ,            79.0   ,            78.0   ,  1.175   ,
2010-12-09 14:35:04 ,              634.5   ,               1375.0   ,               78.0   ,          35   ,         99   ,          2037   ,            78.0   ,            79.0   ,            78.0   ,  1.175   ,
2010-12-09 14:35:05 ,              634.5   ,               1375.0   ,               78.0   ,          35   ,         99   ,          2036   ,            78.0   ,            79.0   ,            77.5   ,  1.175   ,
2010-12-09 14:35:06 ,              598.5   ,               1375.0   ,               78.0   ,          35   ,         99   ,          2036   ,            78.5   ,            79.0   ,            77.5   ,  1.175   ,
2010-12-09 14:35:07 ,              634.5   ,               1375.0   ,               78.0   ,          35   ,         99   ,          2037   ,            78.0   ,            79.0   ,            77.5   ,  1.175   ,
2010-12-09 14:35:08 ,              598.5   ,               1375.0   ,               78.0   ,          35   ,         99   ,          2036   ,            78.0   ,            79.0   ,            78.5   ,  1.175   ,
2010-12-09 14:35:09 ,              634.5   ,               1375.0   ,               78.0   ,          36   ,        100   ,          2072   ,            78.0   ,            79.5   ,            78.5   ,  1.175   ,
2010-12-09 14:35:10 ,              612.0   ,               1375.0   ,               78.0   ,          36   ,        100   ,          2079   ,            78.5   ,            79.5   ,            78.0   ,  1.175   ,
2010-12-09 14:35:11 ,              634.5   ,               1375.0   ,               78.0   ,          36   ,        100   ,          2083   ,            78.5   ,            79.5   ,            78.0   ,  1.175   ,
2010-12-09 14:35:12 ,              598.5   ,               1375.0   ,               78.0   ,          36   ,        100   ,          2083   ,            78.5   ,            79.5   ,            78.5   ,  1.175   ,
2010-12-09 14:35:13 ,              880.0   ,               1375.0   ,               78.0   ,          36   ,        100   ,          2081   ,            78.5   ,            80.0   ,            78.5   ,  1.175   ,
2010-12-09 14:35:14 ,              634.5   ,               1375.0   ,               78.0   ,          36   ,        100   ,          2080   ,            78.5   ,            79.5   ,            78.5   ,  1.175   ,
2010-12-09 14:35:15 ,              612.0   ,               1375.0   ,               79.0   ,          36   ,        100   ,          2081   ,            79.0   ,            80.0   ,            78.5   ,  1.175   ,
2010-12-09 14:35:16 ,              880.0   ,               1375.0   ,               78.0   ,          36   ,        100   ,          2082   ,            78.5   ,            79.5   ,            79.0   ,  1.175   ,
2010-12-09 14:35:17 ,              634.5   ,               1375.0   ,               79.0   ,          36   ,        100   ,          2080   ,            79.5   ,            80.0   ,            78.5   ,  1.175   ,
2010-12-09 14:35:18 ,              598.5   ,               1375.0   ,               80.0   ,          36   ,        100   ,          2083   ,            79.5   ,            80.0   ,            79.5   ,  1.175   ,
2010-12-09 14:35:19 ,              598.5   ,               1375.0   ,               79.0   ,          36   ,        100   ,          2081   ,            79.0   ,            80.5   ,            79.0   ,  1.175   ,
2010-12-09 14:35:20 ,              598.5   ,               1375.0   ,               79.0   ,          36   ,        100   ,          2080   ,            79.5   ,            80.0   ,            79.5   ,  1.175   ,